Theta_e
348 345 344 344 346 346 346 347 347 347 346 345 342 340 337 333 333 333 332 333 334 335 335 335 334 334 337 338 340 340 339 339 339 339 337 334 333 337 338 333 325 323 325
349 350 349 347 347 345 345 346 347 345 345 343 336 333 333 332 332 332 332 334 335 335 333 334 335 336 337 337 338 340 339 342 342 340 337 332 329 334 336 334 325 334 325
347 347 347 347 344 343 344 343 343 343 344 334 333 333 333 333 333 332 333 334 334 332 335 336 335 335 334 334 336 338 340 341 343 343 339 334 335 331 333 324 330 337 332
345 345 343 342 342 343 342 342 341 340 341 333 335 332 331 331 333 335 335 333 330 332 335 336 336 335 336 336 336 337 341 341 341 344 342 339 326 332 328 324 335 332 334
340 340 340 341 344 344 342 341 338 336 338 335 333 331 330 332 333 335 335 333 334 335 335 334 335 335 336 337 337 338 339 339 343 345 343 335 328 332 326 334 335 325 326
340 340 340 342 344 341 339 338 336 334 332 331 331 330 331 332 334 335 335 335 335 333 334 335 336 336 337 337 338 340 340 341 345 343 342 334 331 326 331 323 335 323 321
340 341 342 342 340 335 336 337 337 337 337 335 333 333 335 336 336 335 335 333 331 332 334 335 335 336 337 338 338 339 342 340 344 345 343 338 333 326 336 329 325 337 328
342 342 342 342 341 336 341 340 339 339 339 338 338 337 336 335 334 333 332 331 332 334 336 336 335 334 334 335 335 341 338 341 340 344 343 337 327 328 331 325 323 327 331
342 343 343 343 341 340 338 339 339 338 336 338 338 337 337 337 333 333 334 336 336 340 340 336 334 335 332 334 341 341 339 342 344 346 345 337 326 330 326 323 324 323 327
343 343 342 343 341 340 340 341 339 338 336 336 336 337 336 336 336 337 341 342 341 340 337 336 340 337 335 336 342 343 344 344 344 345 345 344 336 325 327 325 322 325 329
344 343 345 342 341 339 337 338 338 338 336 335 335 336 336 337 340 339 342 338 337 343 343 339 343 342 342 341 341 341 343 345 345 346 344 344 341 330 325 328 324 323 330
340 342 348 348 346 343 339 337 337 338 337 336 336 337 338 341 346 345 344 346 344 345 343 342 342 343 343 344 343 342 342 345 344 341 344 345 343 340 327 328 326 324 324
341 340 342 342 340 339 339 339 338 338 337 336 337 339 343 343 345 343 341 344 344 344 343 344 344 343 341 341 342 342 343 342 341 342 344 345 345 343 338 329 327 325 324
345 344 344 344 343 343 342 341 341 339 339 342 338 343 345 342 343 342 344 342 342 342 344 344 343 342 341 340 341 342 342 344 343 341 340 344 346 342 342 339 331 329 325
347 347 346 346 346 345 346 345 345 345 343 346 347 348 347 346 346 346 346 345 345 343 343 341 343 342 342 341 340 340 339 342 342 342 341 342 341 342 342 342 341 335 329
348 348 347 347 345 350 350 346 347 348 347 349 348 348 347 347 346 346 345 345 344 345 343 343 343 342 341 341 339 339 338 339 342 343 341 341 340 340 341 343 343 340 337
347 347 350 349 348 345 344 348 346 347 347 348 348 348 346 345 348 345 344 343 343 344 343 342 343 343 342 340 337 335 333 333 333 340 343 342 343 343 341 342 343 344 341
349 350 349 349 348 347 346 347 349 348 347 346 347 348 347 346 347 346 345 344 344 344 343 341 341 340 337 335 332 329 328 328 327 331 335 341 342 343 342 341 341 341 342
349 347 349 349 347 345 346 346 347 347 347 346 346 345 346 345 344 343 344 344 347 342 341 340 338 336 333 331 328 332 329 328 329 328 332 337 341 343 343 342 342 341 340
348 345 345 346 346 345 347 347 349 349 347 346 346 344 344 344 344 345 344 348 340 335 331 329 330 330 329 333 334 331 329 329 330 334 334 334 336 340 343 343 343 343 342
346 345 345 347 347 346 347 350 350 349 348 347 347 347 347 346 347 346 341 339 334 332 331 330 328 332 334 335 333 330 329 331 334 338 338 339 339 339 336 339 342 341 340
346 345 345 347 346 344 344 346 346 344 341 341 346 343 339 341 341 341 338 333 330 327 330 331 337 333 334 335 334 333 332 336 334 332 333 333 335 337 338 340 341 341 341
346 345 346 347 344 339 341 343 342 339 335 336 340 340 339 344 339 335 329 322 324 330 332 328 327 331 334 334 333 333 333 334 331 331 332 331 331 333 336 339 339 340 339
346 346 346 345 342 342 344 342 333 334 339 338 336 338 343 342 335 327 328 329 330 333 332 326 327 330 332 331 332 331 332 332 332 331 328 325 324 324 325 328 331 333 335
345 346 341 342 343 340 342 336 331 330 337 339 332 336 342 337 331 328 331 333 335 335 329 327 329 329 329 329 331 329 330 329 328 325 323 321 321 320 319 319 323 325 326
342 342 345 343 340 336 330 329 323 328 331 329 332 337 337 333 329 328 333 335 335 332 324 326 328 328 330 330 327 325 325 324 324 324 323 321 320 319 317 317 318 318 318
Wind_Speed
20 25 26 26 27 25 24 23 23 24 22 21 20 22 22 24 22 19 18 14 13 11 11 10 9 7 8 8 7 6 5 4 4 4 4 4 4 5 5 5 6 5 8
18 20 22 24 22 22 23 22 22 22 22 22 25 25 23 20 18 17 16 13 12 11 11 9 8 8 8 7 8 7 5 4 3 4 5 5 4 3 4 3 5 9 10
20 21 22 23 23 22 23 23 23 23 24 27 25 21 19 18 18 18 15 12 11 10 9 8 8 8 8 8 8 8 6 5 5 3 3 5 4 5 4 3 7 10 11
23 24 24 24 24 24 22 22 22 23 26 27 21 18 19 19 18 16 13 12 10 8 7 6 5 6 6 7 7 7 6 4 2 2 2 2 4 3 4 5 9 8 11
23 23 23 23 23 22 22 22 23 24 25 22 20 19 17 17 15 13 12 10 8 6 5 4 4 5 6 6 6 5 5 4 2 1 3 3 3 3 5 6 10 8 12
24 23 23 23 22 24 24 24 24 22 22 20 19 16 15 14 13 11 10 8 6 3 3 3 4 4 5 6 5 4 4 3 4 5 4 3 3 3 6 6 11 11 11
24 23 23 22 23 24 24 24 23 21 21 19 18 16 14 14 12 9 8 5 3 2 3 3 4 4 4 4 3 2 3 2 2 1 3 2 2 3 5 4 10 9 10
24 23 22 22 23 24 24 22 20 19 18 17 16 15 13 11 8 6 4 2 2 1 1 3 4 4 3 2 2 3 2 1 2 2 5 3 2 3 7 6 8 10 11
22 23 23 23 23 22 21 19 17 16 14 15 13 12 10 8 6 3 1 1 1 2 3 4 4 4 2 2 3 4 2 1 1 2 3 4 2 3 5 6 8 10 10
21 21 21 21 21 21 19 17 16 15 14 12 11 11 9 7 4 4 1 3 2 3 4 4 3 4 3 2 2 4 3 1 2 1 3 3 3 3 5 6 7 9 10
20 20 20 19 19 19 19 17 15 14 12 10 10 10 8 6 4 3 4 3 6 3 4 3 3 4 4 3 4 2 4 3 2 1 1 2 5 5 6 7 7 9 10
22 19 18 19 19 18 17 17 15 13 11 9 10 9 7 5 4 3 2 7 5 1 3 3 4 6 5 3 5 7 7 6 5 4 3 4 5 7 7 8 8 9 10
22 21 19 17 17 16 15 14 13 11 10 10 11 9 6 5 5 3 4 6 6 6 3 4 4 6 7 6 6 9 7 8 7 8 7 8 6 8 9 7 9 10 11
23 20 19 17 16 15 13 12 12 12 11 11 11 9 7 7 5 4 4 6 7 7 7 6 7 9 10 12 12 11 9 10 10 10 7 8 6 7 10 10 8 11 11
21 19 19 16 17 16 14 12 12 11 13 10 9 11 10 9 7 6 8 9 10 8 9 10 10 10 13 14 13 12 11 12 11 11 10 10 11 10 10 13 11 11 13
19 21 18 16 15 16 17 15 12 13 14 13 12 12 11 11 9 10 11 11 9 9 11 12 13 14 14 15 13 13 12 12 12 12 13 12 13 12 13 13 15 13 13
20 20 21 14 17 16 14 15 13 12 13 15 14 14 13 12 11 12 10 9 10 12 11 13 12 13 13 13 13 13 14 13 13 14 12 13 13 16 15 15 16 16 15
22 21 19 17 16 16 14 14 14 13 15 15 14 15 13 13 14 15 13 10 12 13 13 12 13 13 12 13 15 16 15 14 13 13 15 15 17 15 16 16 16 16 17
23 22 23 21 16 16 15 14 15 17 19 18 18 15 13 13 14 16 13 10 13 12 11 10 10 11 11 12 13 13 12 10 10 12 11 14 16 17 18 18 18 17 18
22 20 22 20 17 15 15 15 17 16 18 19 17 14 15 15 13 11 11 12 10 7 9 11 12 12 12 11 13 14 11 7 6 5 7 10 11 18 17 19 19 19 19
23 21 22 21 18 18 19 18 17 14 12 13 13 12 14 14 11 10 10 7 10 13 11 9 10 10 9 12 13 13 7 6 1 3 2 1 5 10 16 20 21 18 20
25 23 21 20 19 19 18 14 12 10 11 10 11 11 10 7 6 6 8 13 15 12 9 9 9 11 10 10 12 11 7 3 2 6 5 6 7 8 8 10 13 16 20
28 25 24 22 21 19 14 13 14 13 11 11 10 10 8 7 7 9 12 9 5 2 5 10 11 11 10 7 7 5 3 2 13 1 3 7 7 8 9 9 11 12 13
28 25 24 25 23 21 17 17 14 11 11 11 11 12 11 9 7 8 6 2 1 4 9 8 7 7 8 6 4 3 3 5 4 6 8 8 8 9 8 10 13 14 16
28 29 26 27 25 22 21 19 15 13 13 12 12 12 13 10 9 8 7 5 5 7 11 5 4 4 4 3 3 3 2 2 2 5 12 16 12 11 11 10 10 12 14
31 30 28 28 27 24 23 20 17 15 12 13 14 15 14 10 9 9 8 7 8 12 8 5 3 3 3 2 2 1 2 3 6 6 10 16 18 16 11 10 11 13 13
Wind_Direction
128 129 136 131 127 129 134 135 137 139 139 136 135 133 132 132 132 131 130 123 115 117 111 104 101 97 89 78 71 71 62 65 94 113 103 92 86 109 114 98 66 115 128
132 136 136 141 134 135 138 138 141 143 141 139 135 132 136 140 142 141 140 131 123 120 114 111 107 94 83 65 63 60 61 62 107 120 101 62 68 95 104 107 84 114 130
137 135 136 139 138 135 135 139 143 142 143 140 137 136 139 141 140 138 140 132 122 117 111 102 90 81 63 50 44 47 64 76 76 139 115 63 64 93 114 107 114 132 131
138 138 137 139 138 137 139 139 140 141 145 149 143 140 138 136 134 131 132 128 122 116 108 105 94 70 50 40 43 43 52 69 98 154 125 73 71 131 145 122 129 144 137
139 139 139 140 139 139 142 142 140 142 146 152 152 146 140 140 142 134 131 129 130 124 113 95 77 47 29 29 32 37 58 48 102 152 138 75 55 132 126 138 143 146 151
143 143 142 146 144 145 143 143 144 147 152 154 156 156 149 145 149 139 135 135 128 104 86 76 47 25 21 23 21 44 68 53 64 89 153 99 84 110 123 126 146 135 146
145 147 148 149 150 147 148 148 147 148 150 155 157 153 153 154 150 143 138 136 124 112 90 44 13 4 4 4 360 22 76 136 101 100 158 175 136 120 132 138 152 155 155
152 151 152 155 155 156 154 154 155 154 153 153 155 154 157 155 149 145 146 144 136 134 22 347 342 336 336 347 18 14 6 331 153 150 166 161 175 160 171 170 161 163 164
156 156 157 158 160 162 165 167 166 164 163 164 165 165 164 165 159 153 176 195 209 302 315 322 329 340 332 347 8 24 9 36 104 136 196 203 195 193 185 175 171 170 165
167 164 163 165 165 167 167 168 164 162 164 169 177 178 177 170 175 189 229 285 271 295 321 315 343 7 2 335 360 18 19 18 12 231 283 228 246 215 210 189 186 186 182
174 172 172 172 174 176 177 172 168 170 173 173 178 184 187 188 201 222 253 316 290 321 330 331 357 357 3 2 358 324 321 321 343 120 122 311 245 239 224 203 201 197 198
174 173 175 178 181 180 183 187 187 189 187 187 188 191 195 203 224 272 282 316 254 272 325 306 325 339 353 323 319 319 293 293 308 298 281 269 278 252 242 217 214 212 211
181 181 182 182 183 184 183 185 189 191 194 199 197 203 229 226 232 301 292 302 314 302 301 311 343 5 13 353 327 309 296 288 285 286 302 265 292 265 248 242 224 223 225
181 182 180 182 187 189 189 194 194 199 198 203 208 216 239 245 262 296 316 308 303 292 308 323 329 333 332 332 320 322 294 282 286 303 276 263 266 282 256 254 243 233 232
185 180 185 185 190 189 195 196 195 197 197 197 217 232 244 252 263 280 301 303 308 301 300 303 311 308 306 309 314 310 308 286 280 280 277 262 256 268 274 253 259 250 238
191 189 184 188 187 193 200 200 207 214 220 225 233 238 246 256 269 290 293 282 296 300 297 299 298 293 300 305 306 305 301 293 278 268 273 261 265 267 263 265 256 261 254
192 197 199 191 192 202 212 220 227 229 235 238 239 242 255 250 270 284 283 279 286 295 292 294 295 297 301 306 309 307 303 294 291 272 266 252 259 275 265 258 264 258 258
198 203 200 206 214 217 221 223 233 241 245 249 251 256 257 260 262 272 283 281 284 293 284 281 289 293 301 309 311 312 307 293 292 281 268 263 267 265 265 259 257 263 264
206 208 203 208 219 220 222 231 237 245 248 246 249 256 259 260 267 275 275 266 290 290 285 284 288 295 303 305 309 313 318 307 288 282 275 264 264 265 265 262 266 266 263
209 215 211 213 216 218 227 231 236 244 242 244 247 243 249 249 258 260 265 283 294 292 292 291 296 306 315 316 320 323 329 325 304 294 278 271 268 262 256 260 264 268 270
212 212 213 215 217 218 219 228 235 240 240 238 239 244 243 249 260 269 279 277 288 297 293 293 304 310 321 324 324 326 350 323 190 65 63 355 297 294 266 261 262 267 264
212 213 212 219 223 219 220 230 242 242 234 226 215 232 247 244 252 262 275 288 284 281 282 293 298 304 313 319 324 337 350 90 94 337 334 323 319 323 307 281 280 276 271
212 214 213 216 216 217 218 223 230 230 227 215 221 235 243 220 247 277 284 288 278 285 296 298 294 298 308 318 324 330 348 294 328 248 356 345 326 311 298 289 287 289 287
214 213 215 211 210 216 222 224 230 238 241 243 242 238 232 226 261 262 285 201 150 326 316 295 279 287 292 304 316 323 332 318 327 321 334 348 347 335 312 290 284 281 278
208 207 209 210 213 216 223 222 224 231 243 252 253 223 218 234 268 263 275 275 274 301 313 290 284 285 290 300 332 331 317 306 289 321 327 337 340 351 347 340 314 299 287
203 204 208 212 215 215 215 217 225 234 244 247 238 225 218 245 259 262 260 263 295 306 296 293 277 285 268 268 312 25 44 349 322 321 322 331 333 340 355 354 346 347 333